Location: Katzenstein
(51.7484°N, 10.2155°E)
Time: 04:49:32
(UTC+00:00)

Cosmos 1459 Rocket - Pass Details

Date: 17 February 2020
Orbit: 938 x 999 km, 83.0° (Epoch: 02 April)

Event Time Altitude Azimuth Distance (km) Brightness Sun altitude
Rises 05:11:06 0° 347° (NNW) 3,635 6.8 -12.9°
Reaches altitude 10° 05:13:37 10° 344° (NNW) 2,693 6.1 -12.5°
Maximum altitude 05:19:38 58° 267° (W) 1,120 4.0 -11.6°
Drops below altitude 10° 05:25:41 10° 190° (S) 2,715 6.3 -10.7°
Sets 05:28:14 0° 187° (S) 3,667 7.0 -10.3°
